Location: Dannhausen
(51.8650°N, 10.1026°E)
Time: 23:26:47
(UTC+00:00)

MetOp-A - Pass Details

Date: 09 April 2020
Orbit: 819 x 821 km, 98.5° (Epoch: 27 May)

Event Time Altitude Azimuth Distance (km) Brightness Sun altitude
Exits shadow 19:13:32 - 162° (SSE) 3,089 6.7 -10.3°
Reaches altitude 10° 19:15:14 10° 162° (SSE) 2,414 6.2 -10.6°
Maximum altitude 19:20:35 89° 72° (ENE) 830 4.2 -11.3°
Drops below altitude 10° 19:25:59 10° 345° (NNW) 2,431 7.3 -12.0°
Sets 19:28:21 0° 346° (NNW) 3,368 8.1 -12.3°
